TimeEDT,TemperatureF,Dew PointF,Humidity,Sea Level PressureIn,VisibilityMPH,Wind Direction,Wind SpeedMPH,Gust SpeedMPH,PrecipitationIn,Events,Conditions,WindDirDegrees,DateUTC
12:15 AM,51.1,43.3,75,30.33,10.0,NE,6.9,-,N/A,,Scattered Clouds,40,2013-09-17 04:15:00
12:35 AM,50.0,44.2,81,30.33,10.0,NE,9.2,-,N/A,,Scattered Clouds,50,2013-09-17 04:35:00
12:55 AM,48.7,42.4,79,30.34,10.0,NE,9.2,-,N/A,,Scattered Clouds,50,2013-09-17 04:55:00
1:15 AM,47.3,40.8,78,30.34,10.0,NE,8.1,-,N/A,,Scattered Clouds,50,2013-09-17 05:15:00
1:35 AM,46.0,39.2,77,30.35,10.0,ENE,6.9,-,N/A,,Scattered Clouds,60,2013-09-17 05:35:00
1:55 AM,44.8,38.3,78,30.35,10.0,ENE,5.8,-,N/A,,Scattered Clouds,70,2013-09-17 05:55:00
2:15 AM,44.1,37.4,77,30.36,10.0,NE,5.8,-,N/A,,Scattered Clouds,40,2013-09-17 06:15:00
2:35 AM,44.6,37.6,76,30.36,10.0,NE,8.1,-,N/A,,Scattered Clouds,40,2013-09-17 06:35:00
2:55 AM,43.7,37.2,78,30.37,10.0,NE,4.6,-,N/A,,Clear,50,2013-09-17 06:55:00
3:15 AM,43.9,37.4,78,30.36,10.0,NNE,3.5,-,N/A,,Clear,30,2013-09-17 07:15:00
3:35 AM,42.6,37.4,82,30.37,10.0,Calm,Calm,-,N/A,,Clear,0,2013-09-17 07:35:00
3:55 AM,42.4,36.9,81,30.37,10.0,Calm,Calm,-,N/A,,Clear,0,2013-09-17 07:55:00
4:15 AM,41.9,37.0,83,30.37,10.0,Calm,Calm,-,N/A,,Clear,0,2013-09-17 08:15:00
4:35 AM,42.4,37.4,82,30.37,10.0,Calm,Calm,-,N/A,,Clear,0,2013-09-17 08:35:00
4:55 AM,40.6,36.5,85,30.38,10.0,Calm,Calm,-,N/A,,Clear,0,2013-09-17 08:55:00
5:15 AM,39.9,36.3,87,30.38,10.0,Calm,Calm,-,N/A,,Clear,0,2013-09-17 09:15:00
5:35 AM,39.2,36.9,91,30.38,10.0,Calm,Calm,-,N/A,,Clear,0,2013-09-17 09:35:00
5:53 AM,37.4,35.6,93,30.39,10.0,East,3.5,-,N/A,,Clear,100,2013-09-17 09:53:00
6:53 AM,39.2,35.6,87,30.42,10.0,Calm,Calm,-,N/A,,Clear,0,2013-09-17 10:53:00
7:53 AM,41.0,37.4,87,30.44,10.0,ENE,4.6,-,N/A,,Clear,70,2013-09-17 11:53:00
8:53 AM,44.6,39.2,81,30.45,10.0,NE,4.6,-,N/A,,Clear,50,2013-09-17 12:53:00
9:53 AM,48.2,39.2,71,30.46,10.0,ENE,9.2,-,N/A,,Clear,60,2013-09-17 13:53:00
10:53 AM,53.6,39.2,58,30.45,10.0,ENE,4.6,-,N/A,,Clear,70,2013-09-17 14:53:00
11:53 AM,55.4,37.4,51,30.44,10.0,NNE,4.6,-,N/A,,Clear,30,2013-09-17 15:53:00
12:53 PM,59.0,33.8,39,30.43,10.0,East,6.9,-,N/A,,Clear,80,2013-09-17 16:53:00
1:53 PM,62.6,28.4,27,30.40,10.0,ESE,8.1,-,N/A,,Clear,110,2013-09-17 17:53:00
2:53 PM,64.4,28.4,26,30.38,10.0,ENE,5.8,-,N/A,,Clear,70,2013-09-17 18:53:00
3:52 PM,66.2,30.2,26,30.36,10.0,East,6.9,-,N/A,,Clear,90,2013-09-17 19:52:00
4:53 PM,66.2,33.8,30,30.33,10.0,Variable,3.5,-,N/A,,Clear,0,2013-09-17 20:53:00
5:53 PM,64.4,35.6,34,30.32,10.0,Variable,3.5,-,N/A,,Clear,0,2013-09-17 21:53:00
6:53 PM,60.8,33.8,36,30.31,10.0,Variable,3.5,-,N/A,,Clear,0,2013-09-17 22:53:00
7:53 PM,57.2,37.4,48,30.33,10.0,SSE,6.9,-,N/A,,Clear,160,2013-09-17 23:53:00
8:53 PM,55.4,35.6,47,30.34,10.0,Calm,Calm,-,N/A,,Clear,0,2013-09-18 00:53:00
9:15 PM,53.1,37.6,56,30.34,10.0,Calm,Calm,-,N/A,,Clear,0,2013-09-18 01:15:00
9:35 PM,52.5,37.2,56,30.33,10.0,Calm,Calm,-,N/A,,Clear,0,2013-09-18 01:35:00
9:55 PM,50.2,40.6,70,30.33,10.0,Calm,Calm,-,N/A,,Clear,0,2013-09-18 01:55:00
10:15 PM,50.0,39.9,68,30.33,10.0,Calm,Calm,-,N/A,,Clear,0,2013-09-18 02:15:00
10:35 PM,50.2,39.6,67,30.33,10.0,Calm,Calm,-,N/A,,Clear,0,2013-09-18 02:35:00
10:55 PM,50.0,40.1,69,30.33,10.0,WNW,4.6,-,N/A,,Clear,290,2013-09-18 02:55:00
11:15 PM,49.6,39.4,68,30.34,10.0,WNW,3.5,-,N/A,,Clear,290,2013-09-18 03:15:00
11:35 PM,48.0,39.2,72,30.34,10.0,Calm,Calm,-,N/A,,Clear,0,2013-09-18 03:35:00
11:55 PM,49.1,38.7,67,30.33,10.0,West,3.5,-,N/A,,Clear,280,2013-09-18 03:55:00